Regional Weather Roundup
Issued by NWS

Current Version | Previous Version | Text Only | Print | Product List | Glossary On
Versions: 1 2 3 4 5 6 7 8 9 10 11 12 13 14 15 16 17 18 19 20 21 22 23 24 25 26 27 28 29 30 31 32 33 34 35 36 37 38 39 40 41 42 43 44 45 46 47 48 49 50
000
ASUS45 KBOI 010710
RWRID

IDAHO REGIONAL WEATHER ROUNDUP
NATIONAL WEATHER SERVICE BOISE ID
1200 AM MST MON MAR 01 2021

NOTE: "FAIR" INDICATES FEW OR NO CLOUDS BELOW 12000 FEET
WITH NO SIGNIFICANT WEATHER AND/OR OBSTRUCTIONS TO VISIBILITY

IDZ012-014-010800-
SOUTHWEST IDAHO


CITY           SKY/WX    TMP DP  RH WIND       PRES   REMARKS
BOISE          CLEAR     30  22  72 E6        30.35S WCI  24
CALDWELL       CLEAR     28  23  81 CALM      30.37S
MOUNTAIN HOME  CLEAR     26  26 100 E7        30.36S WCI  18
$$

IDZ016-017-010800-
SOUTHCENTRAL IDAHO


CITY           SKY/WX    TMP DP  RH WIND       PRES   REMARKS
BURLEY         CLEAR     28  16  60 SW9       30.35S WCI  19
JEROME         CLEAR     28  20  71 SE7       30.36S WCI  21
TWIN FALLS     CLEAR     26  17  68 SW12      30.35S WCI  16
$$

IDZ019>023-010800-
SOUTHEAST IDAHO


CITY           SKY/WX    TMP DP  RH WIND       PRES   REMARKS
IDAHO FALLS    CLEAR      8   6  92 NW3       30.38S
POCATELLO      CLOUDY    30  18  60 S7        30.37S WCI  23
REXBURG        CLOUDY    19  13  77 N5        30.37R WCI  12
$$

IDZ006-010-011-018-031-032-010800-
CENTRAL IDAHO MOUNTAINS


CITY           SKY/WX    TMP DP  RH WIND       PRES   REMARKS
MCCALL         CLOUDY    22  17  81 CALM      30.28S
HAILEY         CLEAR     18   9  68 NW8       30.36R WCI   7
STANLEY          N/A      4   0  83 E3        30.30S
SALMON         CLEAR     19  13  77 SE6       30.36R WCI  11
CHALLIS        CLEAR     21  11  65 CALM      30.31R
$$

IDZ002-004-006-007-026-010800-
NORTHERN IDAHO


CITY           SKY/WX    TMP DP  RH WIND       PRES   REMARKS
LEWISTON       CLEAR     39  26  59 E10       30.26F WCI  32
LOWELL           N/A     31  29  92 N3        30.37F
COEUR D`ALENE  CLOUDY    37  28  70 SE5       30.22F WCI  33
MULLAN PASS    CLOUDY    25  20  81 VRB6      30.14S HAZE    WCI  18
$$



USA.gov is the U.S. government's official web portal to all federal, state and local government web resources and services.